| time (UTC) | temp C | wind direction | speed KPH | gust KPH | rain 1hr cm | rain 24hr cm | rain mn cm | humidity % | barometer mb |
| 20260504050003 | 12 | 35 | 33.8 | 53.1 | 0.00 | 0.00 | 0.00 | 38 | 923.0 |
| 20260504044545 | 12 | 64 | 37.0 | 59.5 | 0.00 | 0.00 | 0.00 | 37 | 922.4 |
| 20260504043043 | 13 | 28 | 30.6 | 46.7 | 0.00 | 0.00 | 0.00 | 41 | 921.9 |
| 20260504041525 | 14 | 23 | 17.7 | 25.7 | 0.00 | 0.00 | 0.00 | 39 | 921.6 |
| 20260504040039 | 14 | 35 | 16.1 | 25.7 | 0.00 | 0.00 | 0.00 | 38 | 921.3 |
| 20260504034507 | 14 | 38 | 17.7 | 24.1 | 0.00 | 0.00 | 0.00 | 37 | 921.0 |
| 20260504033007 | 15 | 28 | 20.9 | 30.6 | 0.00 | 0.00 | 0.00 | 36 | 920.7 |
| 20260504031555 | 15 | 5 | 22.5 | 29.0 | 0.00 | 0.00 | 0.00 | 35 | 920.6 |
| 20260504030049 | 15 | 28 | 19.3 | 25.7 | 0.00 | 0.00 | 0.00 | 33 | 920.5 |
| 20260504024531 | 16 | 52 | 12.9 | 20.9 | 0.00 | 0.00 | 0.00 | 30 | 920.4 |
| 20260504023031 | 17 | 15 | 20.9 | 29.0 | 0.00 | 0.00 | 0.00 | 27 | 920.5 |
| 20260504021512 | 18 | 355 | 9.7 | 16.1 | 0.00 | 0.00 | 0.00 | 24 | 920.3 |
| 20260504020013 | 20 | 355 | 14.5 | 25.7 | 0.00 | 0.00 | 0.00 | 20 | 920.4 |
| 20260504014604 | 21 | 344 | 20.9 | 30.6 | 0.00 | 0.00 | 0.00 | 19 | 920.4 |
| 20260504013059 | 21 | 345 | 19.3 | 30.6 | 0.00 | 0.00 | 0.00 | 19 | 920.4 |
| 20260504011535 | 22 | 339 | 22.5 | 37.0 | 0.00 | 0.00 | 0.00 | 19 | 920.4 |
| 20260504010034 | 22 | 350 | 22.5 | 32.2 | 0.00 | 0.00 | 0.00 | 19 | 920.4 |
| 20260504004515 | 22 | 355 | 24.1 | 37.0 | 0.00 | 0.00 | 0.00 | 18 | 920.6 |
| 20260504003014 | 23 | 339 | 25.7 | 38.6 | 0.00 | 0.00 | 0.00 | 18 | 920.7 |
| 20260504001606 | 23 | 336 | 25.7 | 40.2 | 0.00 | 0.00 | 0.00 | 18 | 920.9 |
| 20260504000120 | 23 | 314 | 20.9 | 38.6 | 0.00 | 0.00 | 0.00 | 18 | 920.9 |
| 20260503234537 | 23 | 350 | 16.1 | 43.5 | 0.00 | 0.00 | 0.00 | 18 | 920.8 |
| 20260503233040 | 23 | 306 | 27.4 | 38.6 | 0.00 | 0.00 | 0.00 | 18 | 920.9 |
| 20260503231517 | 23 | 327 | 29.0 | 43.5 | 0.00 | 0.00 | 0.00 | 18 | 921.0 |
| 20260503230016 | 23 | 329 | 22.5 | 35.4 | 0.00 | 0.00 | 0.00 | 18 | 920.9 |
| 20260503224557 | 23 | 325 | 27.4 | 35.4 | 0.00 | 0.00 | 0.00 | 18 | 921.0 |
| 20260503223055 | 23 | 338 | 29.0 | 41.8 | 0.00 | 0.00 | 0.00 | 19 | 921.1 |
| 20260503221536 | 23 | 332 | 14.5 | 27.4 | 0.00 | 0.00 | 0.00 | 19 | 921.3 |
| 20260503220034 | 23 | 317 | 14.5 | 37.0 | 0.00 | 0.00 | 0.00 | 19 | 921.5 |
| 20260503214520 | 23 | 332 | 22.5 | 40.2 | 0.00 | 0.00 | 0.00 | 19 | 921.7 |
| 20260503213021 | 23 | 302 | 25.7 | 37.0 | 0.00 | 0.00 | 0.00 | 18 | 921.7 |
| 20260503211516 | 23 | 309 | 20.9 | 29.0 | 0.00 | 0.00 | 0.00 | 17 | 922.1 |
| 20260503210015 | 22 | 334 | 20.9 | 30.6 | 0.00 | 0.00 | 0.00 | 17 | 922.3 |
| 20260503204519 | 23 | 300 | 29.0 | 48.3 | 0.00 | 0.00 | 0.00 | 16 | 922.2 |
| 20260503203014 | 22 | 297 | 27.4 | 38.6 | 0.00 | 0.00 | 0.00 | 17 | 922.4 |
| 20260503201510 | 22 | 305 | 19.3 | 40.2 | 0.00 | 0.00 | 0.00 | 18 | 922.6 |
| 20260503200009 | 22 | 315 | 19.3 | 46.7 | 0.00 | 0.00 | 0.00 | 18 | 922.6 |
| 20260503194548 | 22 | 288 | 24.1 | 35.4 | 0.00 | 0.00 | 0.00 | 19 | 922.9 |
| 20260503193049 | 22 | 278 | 22.5 | 30.6 | 0.00 | 0.00 | 0.00 | 19 | 923.0 |
| 20260503190024 | 22 | 299 | 24.1 | 35.4 | 0.00 | 0.00 | 0.00 | 21 | 923.3 |
| 20260503184506 | 22 | 252 | 14.5 | 35.4 | 0.00 | 0.00 | 0.00 | 21 | 923.5 |
| 20260503183002 | 22 | 205 | 20.9 | 35.4 | 0.00 | 0.00 | 0.00 | 22 | 923.6 |
| 20260503181603 | 22 | 261 | 30.6 | 38.6 | 0.00 | 0.00 | 0.00 | 22 | 923.8 |
| 20260503180041 | 21 | 269 | 17.7 | 37.0 | 0.00 | 0.00 | 0.00 | 25 | 924.0 |
| 20260503174528 | 21 | 283 | 16.1 | 29.0 | 0.00 | 0.00 | 0.00 | 25 | 924.0 |
| 20260503173024 | 21 | 273 | 17.7 | 30.6 | 0.00 | 0.00 | 0.00 | 27 | 924.0 |
| 20260503171559 | 20 | 252 | 14.5 | 20.9 | 0.00 | 0.00 | 0.00 | 33 | 924.3 |
| 20260503100107 | 7 | 259 | 17.7 | 22.5 | 0.00 | 0.00 | 0.00 | 73 | 926.3 |
| 20260503081511 | 6 | 286 | 14.5 | 16.1 | 0.00 | 0.00 | 0.00 | 70 | 926.9 |
| 20260503071535 | 7 | 288 | 12.9 | 14.5 | 0.00 | 0.00 | 0.00 | 67 | 927.2 |